EHI
5 4 3 2 2 1 0 0 1 2 3 3 3 3 3 3 2 2 1 0 0 0 0 1 2 2 2 2 2 2 1 0 0 0 0 0 0 0 1 2 3 3 4 4 3 2 3 4 4
4 3 2 1 1 0 0 0 1 3 3 3 3 3 3 3 1 1 0 0 0 0 0 0 1 1 1 1 1 1 0 0 0 0 0 0 0 0 1 2 2 2 3 3 2 2 3 4 4
3 3 1 0 0 0 0 1 2 3 3 3 3 3 3 2 1 0 0 0 0 0 0 0 0 0 0 0 0 0 0 0 0 0 0 0 0 0 1 1 2 2 2 2 2 3 3 3 3
3 2 1 0 0 0 0 1 2 3 3 3 3 3 2 1 1 0 0 0 0 0 0 0 0 0 0 0 0 0 0 0 0 0 0 0 0 1 2 2 2 2 3 3 3 3 3 3 3
2 1 0 0 0 0 0 1 2 2 2 3 3 2 1 1 0 0 0 0 0 0 0 0 0 0 0 0 0 0 1 1 0 0 0 0 0 1 3 3 3 3 3 4 3 3 3 3 3
1 0 0 0 0 0 0 1 2 2 3 2 1 1 1 0 0 0 0 0 0 0 0 0 0 0 0 0 0 0 1 2 1 1 0 0 1 2 3 3 3 3 3 3 3 3 4 3 3
0 0 0 0 0 0 0 0 1 3 3 2 1 0 0 0 0 0 0 0 0 0 0 0 0 0 0 0 0 0 1 2 3 2 1 1 2 3 3 3 3 3 3 3 3 4 4 4 3
0 0 0 0 0 0 0 0 1 3 3 1 0 0 0 0 0 0 0 0 0 0 0 0 0 0 0 0 0 0 1 2 3 3 3 3 3 3 3 3 3 3 3 3 2 3 3 3 2
0 0 0 0 0 0 0 1 2 3 3 1 0 0 0 0 0 0 0 0 0 0 0 0 0 0 0 0 0 0 0 1 1 2 3 3 3 3 2 2 2 2 2 1 1 1 1 1 1
0 0 0 0 0 0 0 1 2 3 3 2 1 0 0 0 0 0 1 0 0 0 0 0 0 0 0 0 0 0 0 0 0 1 2 2 2 1 1 1 1 1 1 0 0 0 0 0 0
0 0 0 0 0 0 0 0 1 1 2 3 2 1 0 0 0 0 0 0 0 0 0 0 0 0 0 0 0 0 0 0 0 0 1 1 1 0 0 0 0 0 0 0 0 0 0 0 0
0 0 0 0 0 0 0 0 0 0 1 3 2 1 0 0 0 0 0 0 0 0 0 0 0 0 0 0 0 0 0 0 0 0 0 0 0 0 0 0 0 0 0 0 0 0 0 0 0
0 0 0 0 0 0 0 0 0 0 1 2 2 1 0 0 0 0 0 0 0 0 0 0 0 0 0 0 0 0 0 0 0 0 0 0 0 0 0 0 0 0 0 0 0 0 0 0 0
0 0 0 0 0 0 0 0 0 0 1 2 1 0 0 0 0 0 0 0 0 0 0 0 0 0 0 0 0 0 0 0 0 0 0 0 0 0 0 0 0 0 0 0 0 0 0 0 0
0 0 0 0 0 0 0 0 0 0 1 1 0 0 0 0 0 0 0 0 0 0 0 0 0 0 0 0 0 0 0 0 0 0 0 0 0 0 0 0 0 0 0 0 0 0 0 0 0
0 0 0 0 0 0 0 0 0 0 0 0 0 0 0 0 0 1 1 1 0 0 0 0 0 0 0 0 0 0 0 0 0 0 0 0 0 0 0 0 0 0 0 0 0 0 0 0 0
0 0 0 0 0 0 0 0 0 0 0 0 0 0 0 0 0 0 0 0 0 0 0 0 0 0 0 0 0 0 0 0 0 0 0 0 0 0 0 0 0 0 0 0 0 0 0 0 0
0 0 0 0 0 0 0 0 0 0 0 0 0 0 0 0 0 0 0 0 0 0 0 0 0 0 0 0 0 0 0 0 0 0 0 0 0 0 0 0 0 0 0 0 0 0 0 0 0
0 0 0 0 0 0 0 0 0 0 0 0 0 0 0 0 0 0 0 0 0 0 0 0 0 0 0 0 0 0 0 0 0 0 0 0 0 0 0 0 0 0 0 0 0 0 0 0 0
0 0 0 0 0 0 0 0 0 0 0 0 0 0 0 0 0 0 0 0 0 0 0 0 0 0 0 0 0 0 0 0 0 0 0 0 0 0 0 0 0 0 0 0 0 0 0 0 0
0 0 0 0 0 0 0 0 0 0 0 0 0 0 0 0 0 0 0 0 0 0 0 0 0 0 0 0 0 0 0 0 0 0 0 0 0 0 0 0 0 0 0 0 0 0 0 0 0
0 0 0 0 0 0 0 0 0 0 0 0 0 0 0 0 0 0 0 0 0 0 0 0 0 0 0 0 0 0 0 0 0 0 0 0 0 0 0 0 0 0 0 0 0 0 0 0 0
0 0 0 0 0 0 0 0 0 0 0 0 0 0 0 0 0 0 0 0 0 0 0 0 0 0 0 0 0 0 0 0 0 0 0 0 0 0 0 0 0 0 0 0 0 0 0 0 0
0 0 0 0 0 0 0 0 0 0 0 0 0 1 1 0 0 0 0 0 0 0 0 0 0 0 0 0 0 0 0 0 0 0 0 0 0 0 0 0 0 0 0 0 0 0 0 0 0
0 0 0 0 0 0 0 0 0 0 0 0 0 1 1 1 0 0 0 0 0 0 0 0 0 0 0 0 0 0 0 0 0 0 0 0 0 0 0 0 0 0 0 0 0 0 0 0 0
0 0 0 0 0 0 0 0 0 0 0 0 0 1 2 1 0 0 0 0 0 0 0 0 0 0 0 0 0 0 0 0 0 0 0 0 0 0 0 0 0 0 0 0 0 0 0 0 0
0 0 0 0 0 0 0 0 0 0 0 0 0 1 1 1 0 0 0 0 0 0 0 0 0 0 0 0 0 0 0 0 0 0 0 0 0 0 0 0 0 0 0 0 0 0 0 0 0
0 0 0 0 0 0 0 0 0 0 0 0 0 0 0 0 0 0 0 0 0 0 0 0 0 0 0 0 0 0 0 0 0 0 0 0 0 0 0 0 0 0 0 0 0 0 0 0 0
0 0 0 0 0 0 0 0 0 0 0 0 0 0 0 0 0 0 0 0 0 0 0 0 0 0 0 0 0 0 0 0 0 0 0 0 0 0 0 0 0 0 0 0 0 0 0 0 0
0 0 0 0 0 0 0 0 0 0 0 0 0 0 0 0 0 0 0 0 0 0 0 0 0 0 0 0 0 0 0 0 0 0 0 0 0 0 0 0 0 0 0 0 0 0 0 0 0
Wind_Speed
3 3 3 3 4 2 3 3 3 3 4 5 5 4 5 6 5 6 4 4 5 5 5 6 7 7 8 9 10 10 10 10 9 9 9 9 8 8 8 8 8 7 7 7 7 7 7 7 7
1 2 3 3 3 2 4 4 4 5 6 6 5 5 6 7 6 6 4 5 5 6 5 6 8 8 8 9 10 10 10 9 9 9 8 8 8 8 8 8 8 8 7 7 7 6 7 7 7
2 2 2 1 1 3 5 5 6 7 5 4 4 5 5 5 5 4 5 5 5 6 6 8 8 9 9 9 10 9 9 9 9 9 8 8 8 8 7 7 8 8 7 7 7 7 7 7 7
2 2 1 1 6 6 5 6 6 7 5 4 5 7 6 5 3 5 6 6 6 6 7 8 8 9 9 9 9 9 9 8 8 8 8 7 7 8 7 7 8 8 8 8 7 7 7 7 7
2 1 1 3 5 6 6 5 4 5 4 5 5 7 7 5 6 7 7 6 7 7 7 8 9 9 9 9 9 9 9 8 8 8 8 7 7 8 8 8 8 8 8 8 8 8 7 7 7
1 2 2 4 6 5 5 4 4 6 7 6 5 7 6 5 6 7 7 7 7 7 7 8 9 8 8 9 8 9 9 9 9 9 8 8 8 8 8 8 8 8 8 8 8 9 8 8 8
1 1 2 4 6 5 4 3 4 5 6 5 3 6 6 6 6 7 7 7 7 7 7 6 7 9 9 9 9 9 9 9 9 9 8 8 8 8 8 8 8 9 8 9 9 9 9 9 10
2 1 4 3 4 5 4 4 4 4 6 4 2 4 6 7 7 7 7 7 7 7 7 7 6 6 7 8 9 9 9 8 8 8 7 6 6 7 6 7 8 8 8 9 9 9 9 9 9
3 2 2 3 3 5 5 5 5 4 6 5 4 5 7 10 9 8 7 7 7 6 6 6 6 6 5 6 7 6 6 6 4 6 5 1 3 5 5 10 8 8 8 9 9 9 8 8 9
1 1 3 3 2 4 5 4 5 5 6 6 7 8 9 10 9 8 8 7 7 6 6 5 5 5 5 4 4 3 4 4 4 4 4 3 4 4 5 8 7 7 7 8 8 6 5 2 4
2 3 4 4 4 4 5 4 3 4 4 5 8 11 11 9 8 8 7 6 6 6 6 5 5 5 4 3 3 2 2 3 3 4 4 3 3 3 3 3 4 4 4 5 5 3 4 4 4
4 5 4 4 4 3 4 4 4 2 4 5 7 11 11 9 8 7 7 6 5 5 5 5 4 4 4 3 3 2 2 2 2 3 4 3 2 2 3 2 3 3 3 3 3 3 5 5 6
5 5 5 5 5 5 6 5 4 4 5 7 8 10 10 9 8 7 7 6 5 5 5 4 3 3 3 3 2 2 3 2 3 2 2 3 2 3 3 3 3 3 3 3 3 4 6 5 6
6 7 5 5 5 4 5 5 4 6 6 8 9 9 9 8 8 7 6 6 6 5 5 4 3 3 2 2 2 2 2 2 2 2 3 3 2 3 2 3 3 3 3 3 3 5 4 4 5
7 7 5 4 3 4 4 4 4 5 6 7 8 8 8 7 7 7 6 6 5 5 5 5 3 3 3 3 3 2 2 2 2 2 3 3 3 2 2 3 3 3 3 4 3 5 3 4 5
3 3 3 3 2 3 3 3 5 5 7 7 7 8 8 7 7 7 7 6 5 5 5 5 3 3 3 2 2 2 2 3 2 2 2 3 3 3 2 2 3 3 3 3 3 3 3 4 4
3 2 2 3 2 2 3 2 5 6 7 7 7 8 8 8 7 7 7 6 6 5 5 6 5 4 3 3 2 2 3 2 2 2 2 2 3 3 3 2 2 3 2 2 3 3 3 4 4
2 2 2 2 2 2 3 3 4 7 7 6 7 8 8 9 9 8 7 7 6 5 6 6 5 4 4 2 2 2 2 2 2 3 3 4 3 3 3 2 2 2 2 2 2 4 3 3 2
1 2 2 1 1 2 3 4 5 7 8 8 8 8 9 9 9 8 8 7 7 6 6 6 6 5 4 2 2 1 2 2 2 3 3 3 3 3 2 1 2 1 2 2 3 3 4 2 1
3 3 2 1 1 3 3 5 5 7 9 8 8 8 9 9 10 9 9 8 8 7 7 7 6 5 4 2 1 1 2 2 3 2 3 3 3 3 2 2 2 2 2 2 2 2 1 2 0
3 3 2 1 2 3 4 4 6 7 8 8 8 8 9 10 11 11 10 10 8 8 8 6 7 6 5 4 2 2 2 2 2 3 2 3 3 3 3 3 2 2 1 2 1 1 1 1 1
2 2 3 3 4 2 4 2 3 6 8 9 10 10 10 11 11 11 11 10 10 9 8 7 7 7 6 5 4 3 2 2 2 2 2 3 3 4 3 3 2 2 2 2 1 1 0 1 0
1 1 3 4 5 4 4 4 2 5 6 9 11 12 11 12 12 12 12 11 10 9 8 7 7 6 6 5 4 3 2 2 2 2 3 3 4 4 3 3 2 2 2 2 1 1 0 1 1
3 3 4 4 5 4 2 4 0 3 4 6 9 12 12 13 13 12 12 10 10 9 8 7 7 6 5 5 5 4 3 3 3 3 3 2 3 3 4 3 2 2 2 2 1 1 1 1 1
5 4 3 4 3 1 1 3 1 1 2 4 6 10 12 13 13 13 13 12 11 10 9 8 8 7 7 6 5 4 4 3 3 3 3 2 2 2 3 2 2 2 2 2 2 1 1 1 1
5 5 3 2 1 0 2 3 1 1 1 2 4 7 10 13 13 14 14 12 11 11 10 10 9 8 7 6 6 5 5 3 2 2 2 2 2 2 3 3 3 3 2 2 2 1 2 1 1
4 4 3 4 3 3 2 1 1 1 1 2 4 7 10 12 13 13 13 13 12 12 11 11 10 9 8 8 6 5 5 4 3 3 3 2 2 2 3 3 3 3 3 2 2 2 2 2 2
3 2 3 4 3 2 1 1 0 0 0 1 3 6 9 11 13 13 13 13 12 11 11 10 10 10 9 8 6 5 5 5 4 3 3 3 3 2 3 3 3 3 3 2 2 2 2 2 3
5 5 4 3 3 3 1 2 3 2 2 1 3 4 7 10 11 12 12 12 12 11 11 11 11 10 9 9 8 7 6 5 4 3 4 3 3 3 3 3 3 3 3 3 3 2 2 2 2
6 5 5 4 2 3 3 1 3 1 1 1 2 3 6 8 10 10 11 11 11 12 12 12 11 11 9 8 8 7 6 6 6 5 4 4 4 3 3 3 3 3 2 2 2 2 2 1 2
Wind_Direction
194 179 196 217 217 173 87 87 97 107 93 77 84 87 80 52 31 68 87 102 99 101 103 107 97 98 99 100 98 95 92 90 87 84 85 84 82 80 78 75 72 73 75 77 77 75 71 68 67
216 182 215 232 234 145 98 87 94 79 96 112 93 89 82 72 57 82 102 106 110 106 106 97 98 97 98 98 95 95 92 89 87 84 83 79 76 75 75 73 72 74 76 77 76 75 70 66 66
165 233 261 246 94 75 95 93 92 96 105 111 94 69 62 69 78 85 99 119 115 105 102 97 100 97 96 96 94 94 90 85 82 80 79 75 73 73 71 72 72 73 75 73 71 71 69 66 67
206 203 225 111 86 66 83 102 110 120 107 88 107 91 77 55 65 96 112 120 112 105 101 98 97 95 95 97 95 90 86 84 82 80 79 76 75 76 73 72 72 73 74 71 71 73 74 71 71
239 236 154 109 86 81 85 94 113 113 101 89 99 98 87 66 80 107 115 111 105 100 97 98 94 93 95 93 90 86 82 81 81 78 74 72 72 73 74 72 70 71 73 72 70 72 75 73 72
209 220 169 121 103 97 97 107 120 104 103 100 97 101 89 95 106 110 112 107 99 96 95 102 98 87 91 90 84 81 77 76 78 75 71 70 69 68 69 71 71 72 74 74 74 73 75 73 73
275 152 107 115 120 114 102 108 111 110 106 92 96 103 109 117 114 118 113 107 100 97 94 94 102 103 101 93 81 78 74 72 71 70 67 67 68 68 69 72 71 73 76 78 77 76 77 77 75
317 165 129 121 126 109 115 116 96 93 98 94 90 111 126 132 130 126 118 111 106 103 101 97 91 90 94 101 87 73 68 66 68 68 65 70 92 91 90 90 74 73 77 80 79 78 80 80 76
258 201 130 116 125 116 131 131 107 101 111 101 79 82 110 132 139 134 127 119 110 104 103 100 97 88 82 84 89 90 85 72 85 93 82 77 84 88 100 70 71 74 78 81 79 80 84 90 89
269 134 83 77 96 118 128 123 127 139 124 117 113 108 125 140 146 143 138 130 125 121 114 107 104 97 90 82 88 73 70 67 55 58 68 64 66 64 71 92 80 80 89 95 86 94 114 122 94
49 77 96 93 100 120 125 117 125 142 127 133 136 137 138 143 147 142 136 131 127 126 122 115 107 98 93 93 76 61 61 66 63 58 72 70 79 99 88 101 113 106 114 98 108 121 80 75 67
95 81 91 102 107 122 121 122 115 92 84 102 131 141 145 148 147 143 137 131 130 126 121 114 112 108 98 87 76 65 69 65 61 58 56 61 61 65 71 73 75 81 79 76 79 74 77 74 74
104 101 91 93 98 103 110 112 109 107 108 119 131 145 150 148 146 144 139 137 137 135 132 122 120 102 92 79 65 73 63 48 72 58 53 60 59 66 73 78 80 79 86 96 81 76 74 67 63
103 107 107 105 106 114 115 113 122 116 126 136 143 150 150 148 149 144 146 149 150 142 134 131 127 106 92 95 87 66 60 70 54 57 59 63 64 67 66 78 79 77 80 82 87 82 83 77 70
124 122 116 112 117 125 131 123 122 127 145 150 155 155 155 157 160 158 159 161 153 144 145 140 134 119 105 86 75 74 63 74 69 55 45 61 58 66 69 77 86 85 91 96 87 86 81 85 83
158 162 139 120 138 163 214 141 134 147 160 160 163 164 172 174 177 171 170 166 156 157 151 147 148 131 106 93 88 87 71 63 61 53 32 47 55 60 68 78 87 94 96 97 93 96 93 87 79
186 176 149 139 141 179 217 162 153 168 177 173 175 178 183 181 184 177 173 169 167 168 161 158 154 144 121 104 102 86 84 67 61 56 40 34 47 55 80 72 83 103 104 102 103 94 91 89 84
170 187 179 168 134 197 211 197 173 183 192 189 186 188 190 189 186 177 173 175 176 175 168 161 155 152 134 127 116 109 92 84 72 57 49 43 43 50 77 102 100 101 111 104 103 104 94 90 85
198 198 164 105 121 221 222 223 205 193 200 203 200 199 198 195 185 175 176 180 181 177 175 169 168 155 152 148 154 131 107 102 82 63 54 52 52 51 67 92 95 84 100 112 124 117 119 114 107
192 184 164 148 171 241 250 247 221 202 208 208 207 207 205 195 185 178 184 184 186 179 182 178 174 169 166 160 148 118 103 94 73 71 65 44 50 51 59 82 103 104 114 133 139 144 141 125 205
205 219 199 194 199 212 252 237 207 196 207 208 213 214 210 200 192 183 186 185 185 183 183 184 179 175 173 163 147 136 134 143 115 95 80 51 49 56 56 60 70 90 120 125 139 165 182 179 155
195 210 218 216 233 212 245 266 181 188 201 209 210 209 208 200 196 188 186 187 188 187 185 187 183 183 175 172 177 169 169 133 106 104 97 90 72 69 61 67 67 82 80 110 149 146 233 258 234
121 171 217 240 259 249 227 258 153 174 208 211 210 208 205 200 196 191 189 190 190 183 184 188 182 183 177 183 181 202 176 125 118 121 112 102 85 75 74 68 68 76 83 95 90 86 312 284 324
154 181 204 225 246 251 244 256 182 174 221 213 204 203 203 197 194 193 190 188 186 181 184 184 182 178 176 186 188 194 158 147 140 138 127 120 105 93 86 75 72 72 74 80 74 88 99 3 4
205 232 225 207 208 221 84 254 274 71 234 233 212 199 197 193 192 191 189 189 187 184 185 183 181 180 182 186 185 180 170 169 158 148 139 134 116 104 93 89 79 74 72 77 77 90 68 67 20
208 248 285 295 300 88 194 247 44 46 256 236 216 197 190 190 191 191 190 190 189 187 186 185 186 185 182 186 183 178 171 180 153 148 144 139 116 98 101 98 90 84 81 86 81 69 67 58 69
208 224 287 290 280 267 206 202 179 185 195 190 190 188 189 189 189 190 190 191 190 188 188 189 188 187 185 187 184 180 177 180 168 162 148 129 119 109 112 118 113 105 97 83 88 75 80 67 52
273 231 221 253 279 266 234 209 41 113 345 181 188 189 187 187 188 189 190 190 192 189 189 191 191 189 186 186 185 180 179 175 170 166 154 149 139 131 136 133 129 121 112 102 90 85 67 80 73
193 207 227 235 279 295 303 79 42 337 322 250 201 192 184 186 187 186 187 190 190 187 187 190 192 190 186 187 185 181 176 174 173 170 159 157 152 155 155 151 148 135 129 120 110 96 94 80 87
232 234 233 248 219 262 285 41 73 338 288 251 211 184 179 183 183 183 184 184 187 189 191 192 192 189 187 186 183 182 176 176 181 174 167 166 162 165 164 154 154 143 138 132 129 124 118 88 66